Regional Weather Roundup
Issued by NWS Grand Forks, ND

Home | Current Version | Previous Version | Graphics & Text | Print | Product List | Glossary On
Versions: 1 2 3 4 5 6 7 8 9 10 11 12 13 14 15 16 17 18 19 20 21 22 23 24 25 26 27 28 29 30 31 32 33 34 35 36 37 38 39 40 41 42 43 44 45 46 47 48 49 50
000
ASUS43 KFGF 011931
RWRFGF
PRAIRIE TO PINES  WEATHER ROUNDUP
NATIONAL WEATHER SERVICE EASTERN NORTH DAKOTA/GRAND FORKS ND
200 PM CDT WED OCT 01 2014

 **SATELLITE DATA USED TO AUGMENT SKY COVER AT AUTOMATED STATIONS**
 *****  WEATHER ACROSS EASTERN NORTH DAKOTA  *****

CITY           SKY/WX    TMP DP  RH WIND       PRES   REMARKS
GRAND FORKS    PTSUNNY   66  52  60 SW18G25   29.58S
GRAND FRKS AFB CLOUDY    64  54  68 SW18      29.59S
GRAND FRKS NWS   N/A     63 N/A N/A SW15        N/A
DEVILS LAKE    CLOUDY    61  50  67 W16G22    29.58S
FARGO          PTSUNNY   69  53  56 SW17      29.63S
WAHPETON ARPT  MOCLDY    68  50  52 SW10G18   29.67S
$$

 ***** WEATHER ACROSS CENTRAL AND WESTERN NORTH DAKOTA  *****

CITY           SKY/WX    TMP DP  RH WIND       PRES   REMARKS
BISMARCK       CLOUDY    60  49  66 W13G23    29.73S
MINOT          CLOUDY    59  48  67 W21G29    29.64R
JAMESTOWN      CLOUDY    61  50  67 W18G24    29.66S
MINOT AFB      CLOUDY    57  54  88 W21G29    29.63R
GARRISON         N/A     60  50  69 W21G28    29.68S
WILLISTON      CLOUDY    57  47  69 NW21G26   29.74R
DICKINSON      CLOUDY    54  47  77 W16       29.76S
HETTINGER      CLOUDY    51  46  83 W21       29.82S
$$

 *****  OTHER AIRPORT OBSERVATIONS IN OUR AREA  *****

CITY           SKY/WX    TMP DP  RH WIND       PRES   REMARKS
WALHALLA         N/A     63  54  72 W14G21    29.54R
GRAFTON AIRPOR CLOUDY    64  54  68 SW14G24   29.56S
VALLEY CITY AR CLOUDY    61  54  77 W17G24    29.66R
CANDO          CLOUDY    59  52  77 W18       29.59S
CAVALIER APRT  MOCLDY    64  54  68 SW17G28   29.54S
GWINNER        MOCLDY    68  52  56 W15G22    29.69S
ROLLA          MOCLDY    57  52  82 W15       29.58S
 ***** THE ABOVE OBSERVATIONS ARE NON NWS ARE NOT QUALITY
       CONTROLLED AND MAY MIS-REPORT RAIN FOR SNOW...
$$

  *****  WEATHER ACROSS NORTHERN MINNESOTA  *****

CITY           SKY/WX    TMP DP  RH WIND       PRES   REMARKS
FLAG ISLAND    CLOUDY    61  55  82 S25       29.55F
WARROAD        PTSUNNY   66  55  68 SW12G24   29.56F
ROSEAU         CLOUDY    68  55  64 SW14G22   29.55F
HALLOCK        MOSUNNY   66  54  63 SW21G28   29.53S
THF RVR FALLS  CLOUDY    64  54  68 SW16G24   29.59F
BAUDETTE       CLOUDY    59  53  80 S12G22    29.62F
WASKISH        CLOUDY    57  54  88 SE9G17    29.65F
CROOKSTON      CLOUDY    64  54  68 W13       29.60F
STEPHEN NDAWN    N/A     66  55  68 SW16        N/A
GREENBUSH NDAW   N/A     64  55  72 S14         N/A
$$
  *****  WEATHER ACROSS CENTRAL AND WEST MINNESOTA  *****

CITY           SKY/WX    TMP DP  RH WIND       PRES   REMARKS
FOSSTON        CLOUDY    63  54  72 S17       29.62F
BEMIDJI        CLOUDY    56  52  84 S16       29.67F
PARK RAPIDS    CLOUDY    54  52  93 S15       29.70F
ELBOW LAKE     MOCLDY    68  60  75 SE9       29.67F
WADENA         CLOUDY    55  54  94 S8        29.70F FOG
DETROIT LAKES  MOSUNNY   66  57  72 S14       29.66F
MOORHEAD       NOT AVBL
FERGUS FALLS   MOSUNNY   72  52  49 W14G20    29.66F
MORRIS MN      MOSUNNY   70  61  73 S9        29.67F
STAPLES        CLOUDY    54  52  94 SE12      29.71F FOG
$$
  *****  WEATHER ELSEWHERE ACROSS MINNESOTA  *****

CITY           SKY/WX    TMP DP  RH WIND       PRES   REMARKS
DULUTH         LGT RAIN  49  46  90 SE12      29.79F FOG
INTRNTL FALLS  CLOUDY    52  48  86 S9        29.70F
ELY            DRIZZLE   48  46  93 S7        29.77F
CLOQUET        RAIN      48  46  93 SE3       29.79S
WHEATON        MOSUNNY   70  54  56 SW14      29.69F
BRAINERD       CLOUDY    52  50  93 S8        29.75F
HIBBING        CLOUDY    50  47  89 SE9       29.77F
ALEXANDRIA     CLOUDY    59  57  93 S13       29.72F
SAINT CLOUD    CLOUDY    56  51  84 SE10      29.76F
MINNEAPOLIS    LGT RAIN  52  51  97 SE7       29.80F
$$

  *****  WEATHER ACROSS SOUTH DAKOTA  *****

CITY           SKY/WX    TMP DP  RH WIND       PRES   REMARKS
SIOUX FALLS    PTSUNNY   72  59  63 VRB5      29.73S
BROOKINGS      NOT AVBL
WATERTOWN      SUNNY     69  52  54 W16       29.71S
HURON          SUNNY     72  50  45 NW13      29.72F
SISSETON         N/A     71  53  52 W9        29.67F
ABERDEEN       MOSUNNY   70  52  52 NW20G25   29.71F
MITCHELL       SUNNY     74  52  46 NW14      29.73F
PIERRE         MOSUNNY   69  49  48 NW17G23   29.78S
MOBRIDGE       CLOUDY    65  49  56 NW17G25   29.74S
RAPID CITY     CLOUDY    56  43  61 N18       29.87S
$$

  *****  SOME WEATHER IN NEARBY STATES *****

CITY           SKY/WX    TMP DP  RH WIND       PRES   REMARKS
GLASGOW MT     PTSUNNY   56  43  61 NW18      29.82F
GREAT FALLS MT PTSUNNY   56  36  47 SW16      29.94F
CHEYENNE WY    LGT RAIN  49  37  63 N17G24    29.92R
SCOTTSBLUFF NE SUNNY     65  43  44 W8        29.87F
OMAHA NE       PTSUNNY   74  62  66 S8        29.73F
DES MOINES IA  CLOUDY    70  62  76 S14       29.77F
DAVENPORT IA   NOT AVBL
CHICAGO IL     PTSUNNY   68  50  52 SE12      29.94F
EAU CLAIRE WI  CLOUDY    53  50  89 SE13      29.82F
LA CROSSE WI   LGT RAIN  61  54  77 S5        29.84F
$$

  *****  SOME NATIONAL WEATHER *****

CITY           SKY/WX    TMP DP  RH WIND       PRES   REMARKS
LA GUARDIA NY  CLOUDY    64  58  80 NE9       30.03S
RALEIGH NC     PTSUNNY   77  61  57 N3        30.00F
ATLANTA GA     MOSUNNY   82  58  43 CALM      29.99F
NEW ORLEANS LA PTSUNNY   83  73  72 E7        29.90F
OKLAHOMA CITY  MOSUNNY   91  65  41 S21       29.72F HX  93
ALBUQUERQUE NM MOSUNNY   70  34  26 S8        29.96F
SALT LAKE CITY MOSUNNY   55  34  45 NW10      30.10S
LOS ANGELES CA MOSUNNY   74  62  66 W12       29.82F
BOISE ID       SUNNY     57  37  47 NW12G18   30.16F
SEATTLE WA     PTSUNNY   58  50  75 CALM      30.23F
$$

*** WEATHER ACROSS MANITOBA...SASKATCHEWAN AND ONTARIO ***
                ***ONTARIO***

CITY           SKY/WX    TMP DP  RH WIND       PRES   REMARKS
GERALDTON      DRIZZLE  N/A N/A N/A S15         N/A
THUNDER BAY    CLOUDY    52  45  76 S7        29.88F
SIOUX LOOKOUT  CLOUDY    54  50  87 S9G17     29.69F
TORONTO        DRIZZLE   59  57  94 E6        30.08  FOG
BIG TROUT LK   SUNNY     61  46  59 S13G18    29.59F
PICKLE LAKE    CLOUDY    54  45  71 S17G26    29.69F
DRYDEN         CLOUDY    54  50  87 S21G29    29.66F
KENORA         CLOUDY    59  54  82 S16G28    29.57
$$
                *** MANITOBA***

CITY           SKY/WX    TMP DP  RH WIND       PRES   REMARKS
BRANDON        PTSUNNY   59  52  77 W28       29.50
DAUPHIN        CLOUDY    57  50  77 W16G23    29.41R
ISLAND LAKE    CLOUDY    57  50  77 SE13      29.39F
PILOT MOUND      N/A     57  50  77 W14G20      N/A
THE PAS        LGT RAIN N/A N/A N/A NW15        N/A
THOMPSON       DRIZZLE   46  46 100 E2        29.34F FOG
WINNIPEG       CLOUDY    59  52  77 SW15      29.50S
LYNN LAKE      LGT RAIN  48  48 100 N13       29.39S
CHURCHILL      CLOUDY    46  43  87 E16G22    29.48
GILLAM         CLOUDY    50  48  93 E7        29.38F
$$
                ***SASKATCHEWAN***

CITY           SKY/WX    TMP DP  RH WIND       PRES   REMARKS
ESTEVAN        LGT RAIN  54  52  94 W17G23    29.66R
KINDERSLEY     MOSUNNY   59  34  38 NW18G25   29.76F
LLOYDMINSTER   MOSUNNY   57  34  41 NW20G25   29.71
PRINCE ALBERT  CLOUDY    55  41  58 NW25G31   29.60S
REGINA         PTSUNNY   54  46  76 NW22G31   29.66S
YORKTON        CLOUDY    54  48  82 W25G31    29.53R
N. BATTLEFORD  MOSUNNY   57  41  54 NW18G26   29.71S
LA RONGE       CLOUDY    46  39  76 NW14G24   29.58S
SASKATOON      MOSUNNY   59  43  55 W17G29    29.67S
SWIFT CURRENT  PTSUNNY   55  39  54 NW20G26   29.77F
$$
NOTE: THESE ARE AUTOMATED STATIONS WITH LIMITED QUALITY CONTROL
      "FAIR" INDICATES FEW OR NO CLOUDS BELOW 12,000 FEET WITH NO
      SIGNIFICANT WEATHER AND/OR OBSTRUCTIONS TO VISIBILITY.
      SKY/WX - SKY CONDITION AND SIGNIFICANT WEATHER.
      TMP - AIR TEMPERATURE.    DP   - DEWPOINT TEMPERATURE.
      RH  - RELATIVE HUMIDITY.  PRES - PRESSURE.
      HX  - HEAT INDEX.         WCI  - WIND CHILL INDEX.
$



USA.gov is the U.S. government's official web portal to all federal, state and local government web resources and services.